Erie, PA

2:56 PM EST on November 13, 2019 (GMT -0500)
Erie International

Weather History for KERI - September, 2019

Change the Weather History Date:

Thursday, September 26, 2019

  Actual Average Record
Temperature  
Mean Temperature 63 °F 60 °F  
Max Temperature 72 °F 68 °F 89 °F (1998)
Min Temperature 54 °F 52 °F 36 °F (1957)
Degree Days  
Heating Degree Days 2 6  
Month to date heating degree days 11 77  
Since 1 July heating degree days 12 95  
Cooling Degree Days 0 1  
Month to date cooling degree days 123 66  
Year to date cooling degree days 813 624  
Growing Degree Days 13 (Base 50)    
Moisture  
Dew Point 51 °F    
Average Humidity 58    
Maximum Humidity 78    
Minimum Humidity 36    
Precipitation  
Precipitation T in 0.17 in 3.91 in (1986)
Month to date precipitation 3.27 3.94  
Year to date precipitation 29.59 29.77  
Snow  
Snow 0.00 in 0.00 in - ()
Month to date snowfall 0.0 0.0  
Since 1 July snowfall 0.0 0.0  
Since 1 September snowfall 0.0 0.0  
Snow Depth 0.00 in    
Sea Level Pressure  
Sea Level Pressure 29.83 in    
Wind  
Wind Speed 8 mph ()    
Max Wind Speed 21 mph    
Max Gust Speed 29 mph    
Visibility 10.0 miles    
Events      
T = Trace of Precipitation, MM = Missing Value Source: Averaged Metar Reports

Daily Weather History Graph

Daily Weather History Graph

Search for Another Location

Airport or City:

Astronomy

Sep. 26, 2019 Rise Set
Actual Time 7:12 AM EDT 7:11 PM EDT
Civil Twilight 6:44 AM EDT 7:39 PM EDT
Nautical Twilight 6:11 AM EDT 8:11 PM EDT
Astronomical Twilight 5:38 AM EDT 8:44 PM EDT
Moon 4:12 AM EDT (9/26) 6:27 PM EDT (9/26)
Length of Visible Light 12h 54m
Length of Day
11h 59m
Waning Crescent, 7% of the Moon is Illuminated
Sep 26
Waning Crescent
Sep 28
New
Oct 5
First Quarter
Oct 13
Full
Oct 21
Last Quarter

Hourly Weather History & Observations

Time (EDT) Temp. Dew Point Humidity Pressure Visibility Wind Dir Wind Speed Gust Speed Precip Events Conditions
12:51 AM 72.0 °F 52.0 °F 49% 29.76 in 10.0 mi SW 10.4 mph - 0.00 in   Overcast
1:51 AM 71.1 °F 52.0 °F 51% 29.76 in 10.0 mi SSW 8.1 mph - N/A   Overcast
2:51 AM 71.1 °F 53.1 °F 53% 29.74 in 10.0 mi SW 6.9 mph - N/A   Overcast
3:51 AM 66.9 °F 54.0 °F 63% 29.73 in 10.0 mi SSW 6.9 mph - N/A   Partly Cloudy
4:51 AM 66.0 °F 54.0 °F 65% 29.72 in 10.0 mi SSW 6.9 mph - N/A   Clear
5:51 AM 66.0 °F 55.0 °F 68% 29.72 in 10.0 mi SW 5.8 mph - N/A   Partly Cloudy
6:51 AM 66.9 °F 55.9 °F 68% 29.74 in 10.0 mi SSW 8.1 mph - N/A   Mostly Cloudy
7:00 AM 66.9 °F 57.0 °F 70% 29.75 in 10.0 mi SW 6.9 mph - N/A   Mostly Cloudy
7:51 AM 68.0 °F 61.0 °F 78% 29.77 in 10.0 mi NNW 9.2 mph - N/A   Overcast
8:17 AM 69.1 °F 60.1 °F 73% 29.80 in 10.0 mi NW 10.4 mph - N/A   Mostly Cloudy
8:29 AM 68.0 °F 60.1 °F 76% 29.80 in 10.0 mi NNW 9.2 mph - N/A   Mostly Cloudy
8:51 AM 68.0 °F 59.0 °F 73% 29.79 in 10.0 mi NNW 4.6 mph - N/A   Overcast
9:11 AM 68.0 °F 57.9 °F 70% 29.79 in 10.0 mi North 5.8 mph - N/A   Overcast
9:23 AM 68.0 °F 57.0 °F 68% 29.80 in 10.0 mi NW 4.6 mph - N/A   Overcast
9:51 AM 66.9 °F 54.0 °F 63% 29.81 in 10.0 mi West 9.2 mph - N/A   Overcast
11:51 AM 71.1 °F 51.1 °F 49% 29.82 in 10.0 mi West 12.7 mph - N/A   Clear
12:51 PM 71.1 °F 53.1 °F 53% 29.83 in 10.0 mi West 15.0 mph 27.6 mph N/A   Scattered Clouds
1:51 PM 71.1 °F 50.0 °F 47% 29.85 in 10.0 mi West 16.1 mph 28.8 mph N/A   Partly Cloudy
2:51 PM 71.1 °F 48.0 °F 44% 29.86 in 10.0 mi West 16.1 mph 24.2 mph N/A   Clear
3:51 PM 70.0 °F 50.0 °F 49% 29.87 in 10.0 mi West 11.5 mph 18.4 mph N/A   Mostly Cloudy
4:51 PM 70.0 °F 45.0 °F 41% 29.89 in 10.0 mi West 16.1 mph 25.3 mph N/A   Scattered Clouds
5:51 PM 69.1 °F 41.0 °F 36% 29.91 in 10.0 mi West 12.7 mph 23.0 mph N/A   Clear
6:51 PM 66.9 °F 41.0 °F 39% 29.94 in 10.0 mi West 10.4 mph 17.3 mph N/A   Clear
7:51 PM 66.0 °F 41.0 °F 40% 29.95 in 10.0 mi West 6.9 mph - N/A   Clear
8:51 PM 61.0 °F 43.0 °F 52% 29.96 in 10.0 mi South 5.8 mph - N/A   Clear
9:51 PM 57.0 °F 44.1 °F 62% 29.98 in 10.0 mi South 5.8 mph - N/A   Scattered Clouds
10:51 PM 57.0 °F 45.0 °F 64% 30.00 in 10.0 mi SSE 3.5 mph - N/A   Clear
11:51 PM 55.0 °F 46.0 °F 72% 30.01 in 10.0 mi South 3.5 mph - N/A   Clear